Powrót do katalogu

KHORS NO. 5

AktywnyMilitariaSSO
NORAD 67283·PAYLOAD·🇷🇺 Russia
Ta nazwa satelity nie została jeszcze potwierdzona przez oficjalne źródła.

Wystrzelony Dec 28, 2025 z Vostochny Cosmodrome

Loading…

Następne Przeloty (najbliższe 24 godziny)

TLE

ŚwieżeSource: Space-Track

Epoka: Sep 14, 2026, 10:12 UTC

1 67283U 25313AM  26257.42523502  .00006794  00000-0  27491-3 0  9997
2 67283  97.3865 331.1025 0011058  50.9117 309.3103 15.24971792 39568

Śledź KHORS NO. 5 w czasie rzeczywistym z AllMySat

Download on the App Store